Location: Unspecified
(35.6961°N, 0.0000°E)
Time: 13:19:32
(UTC+00:00)

Vanguard 3 - Visible Passes

Search period start: 23 October 2019 00:00
Search period end: 02 November 2019 00:00
Orbit: 508 x 3262 km, 33.3° (Epoch: 23 October)

Date Brightness Start Highest point End Pass type
(mag) Time Alt. Az. Time Alt. Az. Time Alt. Az.
23 Oct 9.0 03:32:50 22° SSE 03:32:50 22° SSE 03:36:01 10° SE visible
23 Oct 9.6 05:40:02 10° SW 05:42:35 12° SSW 05:45:36 10° S visible
24 Oct 9.0 04:27:54 17° SSW 04:28:20 17° SSW 04:32:46 10° SSE visible
25 Oct 9.7 03:18:24 12° SSE 03:18:24 12° SSE 03:18:58 10° SSE visible
25 Oct 9.5 19:21:45 10° SSW 19:25:42 16° SSE 19:25:42 16° SSE visible
26 Oct 9.5 04:13:29 11° S 04:13:29 11° S 04:14:15 10° S visible
26 Oct 9.7 18:09:06 10° S 18:12:10 12° SSE 18:14:47 10° SE visible
26 Oct 9.7 20:18:21 10° SW 20:20:45 18° SSW 20:20:45 18° SSW visible
27 Oct 9.0 19:03:39 10° SSW 19:10:37 23° SSE 19:11:11 23° SSE visible
28 Oct 9.6 17:49:30 10° S 17:56:05 17° SSE 18:00:58 10° ESE visible
28 Oct 9.1 20:01:05 10° SW 20:06:12 29° SSW 20:06:12 29° SSW visible
29 Oct 8.8 18:45:44 10° SW 18:54:36 31° SSE 18:56:35 27° SE visible
29 Oct 10.0 20:59:36 10° WSW 21:01:10 16° WSW 21:01:10 16° WSW visible
30 Oct 9.6 17:30:45 10° SSW 17:39:56 24° SSE 17:46:09 10° ESE visible
30 Oct 8.5 19:43:48 10° SW 19:51:32 43° SSW 19:51:32 43° SSW visible
31 Oct 8.8 18:27:54 10° SW 18:38:29 38° SSE 18:41:53 26° ESE visible
31 Oct 9.6 20:42:43 10° WSW 20:46:27 25° WSW 20:46:27 25° WSW visible
01 Nov 8.1 19:26:29 10° WSW 19:36:46 56° SSE 19:36:46 56° SSE visible
